Temperature
7 6 6 6 7 7 8 7 7 8 9 8 8 8 9 9 9 9 9 10 10 10 11 11 12 12 12 12 12 12 12 12 12 12 12 13 13 13 13 13 13 13 14 14
6 6 7 8 8 8 8 7 7 8 9 9 8 8 9 9 9 9 9 9 10 10 10 11 11 11 12 12 12 12 12 12 12 12 12 12 12 12 12 13 13 13 13 13
6 7 9 8 8 8 8 8 8 8 8 8 8 8 8 8 9 9 9 9 9 9 9 10 10 11 11 11 12 12 12 12 12 12 12 12 12 12 12 12 12 12 13 13
7 8 8 8 8 8 8 9 9 8 8 7 8 7 8 8 8 8 8 9 9 9 9 9 10 10 11 11 11 11 11 11 11 11 11 12 12 12 12 12 12 12 12 12
7 8 8 8 8 9 8 9 8 8 8 7 7 7 7 7 7 8 8 8 8 9 9 9 9 10 10 10 11 11 11 11 11 11 11 11 11 11 11 11 11 12 12 12
8 9 8 8 9 9 9 8 8 7 7 7 8 7 7 7 7 8 8 8 8 8 9 9 9 10 10 10 10 10 10 10 10 10 10 10 10 11 11 11 11 11 11 11
7 8 8 9 8 8 8 7 7 7 7 7 8 7 7 8 8 8 7 7 8 8 8 8 9 9 9 9 10 10 10 10 10 10 10 10 10 10 10 10 10 11 11 11
7 7 8 8 8 8 8 7 7 7 7 7 7 7 7 7 8 8 8 7 7 8 8 8 8 8 9 9 9 9 9 9 9 9 9 9 9 9 10 10 10 10 10 10
7 7 8 9 9 8 8 7 8 7 7 7 7 7 7 7 7 7 7 7 7 7 7 7 8 8 8 8 8 8 8 8 9 9 9 9 9 9 9 9 9 10 10 10
7 7 8 8 8 8 8 8 6 6 7 7 7 7 6 7 6 6 6 6 7 7 7 7 7 7 7 8 8 8 8 8 8 8 8 8 8 9 9 9 9 9 9 9
7 6 7 7 7 7 8 8 7 6 6 6 7 7 7 7 7 6 6 7 7 7 7 7 7 7 7 7 7 7 7 7 8 8 8 8 8 8 8 9 9 9 9 8
7 6 5 7 7 8 8 8 7 6 6 5 5 6 7 6 6 6 6 6 7 6 6 6 6 7 7 7 7 7 7 7 7 7 7 7 7 8 8 8 8 8 8 8
7 6 5 6 7 7 8 8 7 6 5 4 5 6 7 6 6 6 6 6 6 6 6 6 6 6 6 6 6 6 6 6 6 6 7 7 7 7 7 8 8 8 8 8
7 5 5 6 6 6 7 7 7 5 4 5 5 6 6 6 6 6 6 6 6 6 6 6 6 6 6 6 6 6 6 6 6 6 6 6 6 6 7 7 7 7 7 7
6 5 6 6 6 7 7 7 7 6 5 5 6 6 6 6 6 6 6 6 6 5 5 5 5 5 5 5 5 5 5 6 6 6 6 6 6 6 6 6 6 6 6 6
6 6 6 6 6 6 6 6 6 6 6 6 6 6 6 6 6 6 6 6 5 5 5 5 5 5 5 5 5 5 5 5 5 5 5 5 5 5 5 5 5 5 6 6
5 5 5 5 5 6 6 6 6 6 6 6 6 6 6 5 5 5 5 5 5 5 5 5 5 4 4 4 4 4 4 4 5 5 5 5 4 4 5 5 5 5 5 5
5 4 3 4 5 6 7 7 6 6 6 6 6 6 5 6 6 6 6 6 5 5 5 5 4 4 4 4 4 4 4 4 4 4 4 4 4 4 4 4 4 4 4 4
4 4 4 3 4 5 6 6 6 6 6 6 5 5 5 6 5 5 5 6 6 5 5 5 4 4 4 4 4 4 4 4 3 3 4 4 4 4 4 4 4 4 4 4
4 4 3 3 5 6 7 7 7 6 6 6 5 5 4 5 4 4 5 5 5 5 5 4 4 4 4 4 3 3 3 3 3 3 3 3 3 3 3 3 3 3 3 3
4 4 3 3 4 4 6 6 6 6 7 7 6 6 5 4 5 6 6 5 5 5 4 4 4 4 3 3 3 3 3 3 3 3 3 3 3 3 3 3 3 3 3 3
3 3 3 3 4 5 5 5 5 6 7 7 6 6 6 6 6 6 5 5 5 4 4 4 4 3 3 3 3 3 3 2 2 2 2 2 2 2 2 2 2 2 2 2
3 3 3 3 5 6 6 7 8 7 7 7 7 7 6 6 5 5 5 5 4 4 4 3 3 3 3 2 2 2 2 2 2 2 2 2 2 2 2 2 2 2 1 1
3 3 3 3 3 5 6 7 7 7 7 7 7 7 6 6 5 5 5 4 4 4 3 3 3 3 2 2 2 2 2 2 2 2 2 1 1 1 1 1 1 1 1 1
3 3 3 3 4 5 6 7 8 7 7 7 6 6 6 6 5 5 4 4 4 3 3 3 2 2 2 2 2 2 2 1 1 1 1 1 1 1 1 1 1 0 0 0
2 3 3 4 5 5 7 8 8 7 7 6 6 6 5 5 5 4 4 4 3 3 3 2 2 2 2 1 1 1 1 1 1 1 1 0 0 0 0 0 0 0 -0 -0
Wind_Speed
4 3 6 8 10 7 4 4 6 6 4 3 5 8 8 4 1 2 2 2 2 3 2 2 2 2 3 4 4 4 4 3 4 3 3 3 3 3 4 5 7 8 9 10
2 6 9 7 7 6 6 6 6 5 2 2 3 5 4 2 1 2 2 1 2 1 3 3 3 2 3 3 4 4 3 3 3 3 3 2 3 3 4 4 4 6 7 9
5 5 5 6 5 5 5 5 4 3 3 1 2 4 4 3 2 3 3 3 3 3 4 3 3 2 2 2 3 3 3 3 3 3 2 2 1 1 2 2 3 4 6 7
4 5 4 3 3 4 4 3 3 2 1 2 1 1 3 3 5 5 4 4 3 3 4 4 4 3 2 2 2 2 3 3 2 2 2 3 3 3 3 4 4 4 4 5
3 3 2 2 3 2 3 2 2 2 1 1 1 1 3 2 3 3 3 3 4 4 4 4 4 3 3 3 3 2 3 2 2 2 2 2 2 2 2 3 4 4 4 5
4 3 1 2 2 2 2 1 1 1 1 1 2 2 2 2 2 1 2 3 4 5 5 5 4 4 5 5 4 3 3 2 1 1 1 2 2 2 2 3 4 4 4 4
2 2 2 0 2 2 2 3 2 3 3 1 1 2 2 3 0 2 2 3 4 5 5 5 6 7 6 7 6 5 5 3 2 1 0 1 1 3 4 4 4 4 4 3
1 2 2 1 1 1 1 3 3 2 2 1 2 0 2 2 1 3 4 4 4 4 5 5 6 6 5 6 6 5 5 4 4 2 1 1 1 2 3 3 3 4 4 4
2 2 2 1 1 2 0 1 3 4 1 1 1 1 2 3 4 4 5 5 4 4 5 5 5 5 5 5 5 4 4 4 4 4 4 3 2 2 2 3 3 3 3 3
1 1 3 2 3 2 1 1 3 3 2 1 2 2 3 2 1 2 3 3 3 4 4 5 5 5 5 5 4 5 5 4 4 4 4 4 3 2 1 1 2 2 3 3
2 2 3 3 1 1 2 2 2 2 3 3 1 4 3 6 5 4 3 2 3 3 3 3 4 4 4 5 5 5 5 5 5 5 4 4 4 3 3 1 2 2 2 3
1 3 1 3 3 2 2 1 2 3 0 2 2 4 2 4 4 4 3 2 2 2 2 3 3 4 5 6 6 5 5 5 5 4 5 5 5 5 5 3 3 3 2 3
2 3 2 4 4 4 1 1 2 4 3 3 3 4 2 2 3 3 3 2 2 2 3 3 4 4 4 5 5 5 4 4 4 5 5 5 5 5 5 5 4 3 3 3
3 2 4 4 4 3 3 2 2 4 3 3 5 4 3 2 3 2 2 2 2 3 3 4 4 4 3 3 4 4 5 4 4 5 5 5 5 5 5 5 4 4 3 3
3 2 1 3 4 3 3 4 3 4 6 6 6 6 7 7 6 5 3 2 3 2 2 3 3 3 3 4 4 5 5 5 5 5 5 5 5 5 5 5 5 4 4 4
2 1 1 3 3 2 4 6 5 5 5 6 4 5 5 4 4 4 3 3 2 1 1 2 2 3 3 3 4 4 5 5 5 4 4 5 5 5 5 5 5 5 5 4
1 2 1 3 5 4 5 7 6 4 5 7 7 7 4 4 6 7 5 4 3 2 0 0 1 2 2 3 3 3 4 4 4 4 4 5 5 5 5 5 4 4 4 4
3 3 2 1 3 3 6 2 4 5 4 5 5 5 7 6 5 5 5 5 4 2 1 0 1 2 3 3 3 3 4 4 5 5 5 5 5 5 5 5 5 5 4 4
3 4 2 1 2 6 6 3 4 4 4 5 6 5 4 3 3 1 2 4 4 4 2 1 0 1 2 2 3 4 4 5 5 5 5 6 5 5 5 5 5 4 4 4
3 4 3 2 2 5 5 2 2 3 4 4 6 7 6 6 3 5 3 2 2 2 1 1 1 2 2 3 3 3 4 4 5 5 5 6 5 5 5 5 5 4 3 4
2 2 3 3 4 7 6 2 4 3 6 3 6 7 8 7 6 4 4 3 2 2 2 2 2 1 1 2 2 3 3 4 5 5 5 5 5 5 5 4 4 4 4 4
6 5 5 5 4 7 4 6 6 7 2 3 5 6 6 5 4 4 4 3 3 2 1 2 1 0 2 2 2 2 3 4 5 5 5 5 5 5 4 4 4 4 4 3
6 7 6 8 8 4 5 7 5 4 3 3 4 4 6 5 5 4 4 3 3 3 2 1 1 0 1 2 1 1 3 4 4 4 5 5 5 5 5 4 4 4 4 3
5 4 4 5 8 7 7 6 4 5 5 4 4 5 6 6 5 5 4 3 3 2 2 1 1 1 1 2 2 2 3 3 3 4 5 5 5 5 5 4 3 3 3 3
6 5 4 6 7 5 6 7 6 4 4 4 4 5 7 7 5 5 5 4 4 3 2 2 2 2 2 2 2 3 3 3 3 4 4 4 4 4 4 4 4 4 3 4
7 8 8 8 8 7 7 6 6 6 6 6 6 5 5 6 7 6 5 5 4 4 2 2 2 2 2 1 2 2 2 2 3 3 4 3 3 4 4 4 4 6 6 7
Wind_Direction
185 187 222 221 211 225 231 244 265 265 260 256 256 273 290 301 295 235 230 198 231 243 175 125 139 144 106 111 129 137 137 155 167 168 165 170 184 191 198 192 186 186 184 184
177 238 242 233 226 229 236 251 271 288 274 256 287 296 314 314 258 221 177 173 213 112 90 105 114 111 124 133 125 133 150 143 147 162 169 167 181 197 208 202 195 199 196 193
209 250 246 234 235 226 233 232 249 259 315 301 321 344 1 8 43 55 65 76 62 98 96 91 78 62 110 124 138 148 143 129 134 140 137 137 136 167 193 208 206 216 215 208
240 262 258 245 234 220 253 231 209 240 312 314 51 334 337 3 39 52 47 41 47 68 83 85 77 64 68 94 102 109 116 115 119 125 132 156 179 196 208 204 215 218 218 211
250 267 231 228 245 219 231 223 227 242 232 328 13 135 310 357 30 31 29 40 50 50 66 71 71 76 77 82 89 91 95 104 98 122 156 162 195 205 204 195 213 220 220 218
255 269 240 235 268 223 217 52 3 46 85 356 288 158 309 308 277 24 31 44 53 48 50 54 49 49 44 45 53 65 75 80 120 127 137 163 184 191 192 200 219 227 230 227
326 311 302 330 5 4 59 86 49 22 25 303 0 107 278 280 250 118 84 51 53 53 53 54 51 49 45 44 43 50 58 45 31 59 12 226 202 208 208 212 218 228 235 245
90 306 297 309 186 234 247 141 148 164 189 304 10 113 273 311 69 85 93 87 68 57 53 54 53 55 50 45 42 44 49 36 25 22 343 323 285 240 225 219 220 226 232 234
157 272 299 260 226 155 105 201 187 136 110 65 348 340 338 35 54 63 74 76 72 64 59 55 53 51 48 43 36 36 44 36 30 26 22 8 335 281 241 236 229 230 241 242
135 143 309 324 30 1 185 172 79 100 128 111 314 262 227 225 134 90 83 81 63 54 53 50 46 40 37 35 31 33 37 38 33 27 17 2 351 333 308 278 269 261 257 249
82 104 337 17 33 313 8 39 82 101 132 144 210 271 227 193 177 157 138 111 88 73 64 49 38 31 31 30 31 30 26 26 23 18 9 6 1 359 358 334 292 276 267 256
84 111 2 295 289 247 224 191 136 137 188 134 160 265 307 178 167 143 129 108 83 73 59 49 47 38 32 29 24 23 18 17 12 7 6 4 5 5 3 353 333 326 302 271
85 102 56 350 337 347 327 306 125 120 111 140 161 255 350 107 121 127 130 121 90 67 52 43 45 38 26 19 15 12 11 5 360 3 5 5 4 4 356 347 341 340 324 309
95 106 165 196 237 241 264 266 166 128 149 191 212 223 248 195 155 158 142 120 99 76 59 44 35 22 11 10 8 4 3 360 359 4 5 3 356 352 345 338 333 331 323 315
84 110 228 264 269 234 240 247 218 187 189 192 213 211 223 209 192 183 160 119 96 70 46 39 23 4 359 4 0 360 1 360 358 2 1 351 345 347 346 344 338 335 329 321
64 118 11 321 318 288 275 259 241 226 208 207 210 244 229 190 161 157 155 147 142 137 52 18 13 5 356 355 353 357 357 354 354 360 351 342 348 349 346 343 340 340 335 323
88 119 75 291 315 346 284 244 212 214 204 183 207 222 180 167 176 180 177 172 184 194 148 358 342 340 335 334 345 347 343 348 360 360 352 349 349 346 341 341 343 337 328 324
150 126 132 291 6 256 255 273 197 201 233 211 200 187 178 188 181 176 173 174 187 193 198 253 329 340 340 345 349 350 354 2 7 2 354 348 344 340 341 345 342 333 327 322
163 149 137 133 278 282 288 258 184 184 257 223 195 184 172 136 93 268 211 181 187 194 196 211 248 350 358 358 353 3 5 5 6 355 347 339 336 338 341 339 332 326 328 329
84 114 130 149 225 250 256 229 162 114 273 233 181 177 169 142 176 237 214 176 170 164 143 123 65 43 24 352 0 19 8 3 350 339 336 335 334 336 332 326 324 327 330 326
123 126 165 190 239 265 253 191 105 156 251 210 176 176 173 187 206 194 163 159 155 145 145 122 99 67 343 344 13 19 3 345 331 332 338 341 342 338 332 331 331 333 335 335
181 178 194 175 214 258 209 143 183 222 238 166 172 176 178 183 163 153 157 157 149 142 135 130 126 350 341 358 25 7 340 327 333 339 344 344 342 341 343 342 340 341 338 336
201 194 193 200 219 253 198 204 221 190 187 192 178 181 163 161 170 170 170 166 167 166 166 159 158 225 340 348 17 341 318 328 341 346 343 340 340 344 345 345 341 341 340 334
251 191 195 252 260 252 237 236 230 203 195 194 180 169 163 171 177 176 172 175 179 178 183 171 147 174 296 320 332 308 316 336 347 344 337 338 342 344 346 344 339 340 337 332
229 188 211 255 269 279 257 227 217 203 179 167 168 172 173 168 178 183 184 190 190 188 188 176 183 207 263 303 318 327 337 350 345 336 332 335 338 336 338 339 335 327 313 313
203 188 193 229 226 208 241 230 196 187 195 186 175 176 174 174 181 182 189 193 190 190 190 192 201 217 247 264 291 317 332 337 333 330 329 328 331 331 331 330 331 340 340 337
Height
1483 1486 1484 1481 1480 1480 1479 1479 1479 1474 1471 1471 1469 1466 1462 1461 1460 1459 1458 1458 1459 1459 1459 1460 1462 1464 1464 1467 1470 1472 1475 1477 1480 1482 1484 1486 1488 1492 1495 1497 1500 1503 1506 1508
1483 1483 1477 1476 1476 1477 1477 1478 1476 1472 1469 1469 1468 1466 1462 1461 1460 1458 1457 1457 1458 1458 1457 1459 1461 1462 1463 1465 1467 1469 1472 1474 1476 1479 1481 1484 1486 1488 1491 1493 1496 1499 1502 1503
1480 1477 1473 1474 1474 1474 1474 1475 1474 1473 1469 1468 1469 1468 1464 1462 1460 1459 1457 1457 1458 1458 1458 1459 1459 1461 1462 1464 1466 1468 1470 1472 1474 1476 1478 1481 1483 1484 1487 1489 1491 1494 1497 1498
1478 1474 1472 1472 1472 1472 1473 1470 1470 1470 1472 1473 1471 1475 1468 1465 1463 1460 1460 1459 1458 1458 1458 1458 1459 1461 1461 1462 1464 1466 1468 1470 1472 1474 1476 1478 1479 1479 1481 1484 1487 1490 1492 1494
1476 1472 1471 1471 1470 1470 1470 1468 1469 1469 1472 1474 1473 1475 1472 1467 1466 1464 1462 1461 1460 1459 1459 1459 1460 1460 1461 1461 1463 1464 1466 1468 1469 1471 1473 1475 1476 1477 1479 1481 1483 1485 1488 1490
1473 1470 1470 1469 1468 1468 1468 1469 1469 1471 1474 1476 1474 1476 1476 1471 1468 1465 1464 1462 1461 1460 1460 1460 1460 1460 1460 1461 1462 1464 1464 1466 1468 1469 1470 1472 1472 1473 1475 1477 1479 1480 1482 1484
1474 1471 1469 1469 1469 1469 1470 1475 1480 1480 1482 1478 1474 1475 1475 1468 1466 1465 1464 1464 1463 1462 1462 1462 1461 1461 1461 1461 1462 1463 1464 1465 1466 1467 1468 1469 1469 1471 1472 1473 1475 1476 1477 1479
1477 1477 1471 1469 1470 1471 1470 1474 1481 1482 1482 1480 1477 1477 1475 1469 1467 1466 1466 1466 1465 1465 1464 1463 1463 1463 1463 1463 1463 1463 1463 1464 1465 1465 1466 1466 1467 1468 1469 1470 1471 1472 1473 1474
1477 1477 1470 1469 1468 1469 1470 1473 1472 1479 1481 1483 1480 1478 1473 1470 1469 1468 1467 1467 1466 1466 1466 1465 1465 1465 1464 1464 1464 1464 1464 1464 1464 1463 1463 1464 1464 1465 1465 1466 1467 1468 1468 1469
1474 1477 1472 1470 1468 1469 1470 1470 1476 1479 1481 1483 1481 1480 1478 1473 1471 1470 1469 1468 1467 1467 1467 1467 1467 1466 1466 1465 1464 1464 1463 1463 1463 1463 1462 1462 1462 1462 1462 1463 1463 1464 1464 1465
1473 1478 1477 1473 1474 1473 1472 1472 1475 1480 1480 1484 1483 1481 1470 1470 1469 1469 1469 1469 1468 1468 1468 1468 1467 1467 1466 1465 1464 1463 1462 1462 1462 1461 1461 1460 1460 1459 1459 1459 1459 1459 1459 1460
1474 1480 1482 1477 1473 1471 1471 1471 1474 1481 1483 1486 1487 1483 1468 1468 1468 1469 1469 1470 1470 1469 1469 1468 1468 1467 1466 1465 1464 1463 1462 1461 1461 1460 1459 1458 1457 1456 1456 1455 1455 1455 1455 1455
1474 1480 1485 1482 1480 1475 1472 1471 1472 1477 1484 1489 1488 1481 1469 1469 1469 1470 1470 1470 1470 1470 1469 1468 1467 1467 1466 1465 1464 1463 1462 1461 1460 1459 1458 1457 1455 1454 1453 1453 1452 1452 1451 1451
1473 1479 1484 1482 1478 1476 1474 1472 1472 1477 1486 1486 1482 1477 1472 1471 1470 1470 1470 1470 1470 1470 1469 1468 1467 1467 1466 1465 1464 1462 1461 1460 1459 1457 1456 1455 1453 1452 1451 1450 1450 1449 1448 1447
1474 1479 1478 1477 1474 1473 1472 1471 1470 1474 1476 1480 1475 1473 1470 1469 1468 1469 1470 1470 1470 1470 1469 1468 1468 1467 1465 1464 1463 1462 1460 1459 1457 1456 1454 1453 1452 1451 1450 1448 1447 1446 1445 1444
1475 1478 1479 1478 1474 1473 1471 1469 1469 1469 1470 1471 1471 1471 1465 1466 1467 1468 1469 1469 1469 1469 1469 1468 1467 1466 1464 1463 1462 1461 1459 1458 1456 1455 1453 1451 1450 1449 1447 1446 1445 1443 1442 1442
1477 1479 1482 1483 1478 1475 1474 1467 1466 1466 1464 1466 1468 1466 1465 1466 1466 1467 1467 1468 1468 1468 1468 1467 1466 1465 1464 1463 1461 1460 1459 1457 1455 1453 1452 1450 1448 1447 1445 1444 1442 1441 1439 1438
1477 1481 1485 1485 1482 1478 1468 1461 1461 1463 1461 1460 1460 1461 1462 1463 1464 1465 1466 1467 1467 1467 1467 1466 1465 1464 1463 1462 1461 1459 1457 1455 1453 1452 1450 1448 1447 1445 1443 1441 1440 1438 1436 1435
1475 1479 1485 1488 1485 1477 1465 1460 1460 1462 1461 1458 1459 1460 1461 1462 1464 1465 1465 1465 1466 1466 1465 1465 1464 1463 1462 1461 1460 1458 1456 1454 1452 1451 1449 1447 1445 1443 1441 1439 1438 1436 1434 1433
1475 1478 1484 1486 1482 1472 1461 1458 1457 1461 1461 1455 1455 1458 1460 1462 1466 1464 1463 1464 1464 1464 1464 1464 1463 1462 1461 1460 1459 1457 1455 1453 1452 1450 1448 1446 1444 1442 1440 1438 1436 1434 1432 1430
1478 1480 1484 1484 1483 1471 1459 1457 1458 1466 1459 1452 1453 1454 1457 1458 1459 1460 1461 1462 1462 1463 1463 1463 1462 1461 1460 1459 1458 1456 1454 1452 1451 1449 1447 1445 1442 1440 1438 1436 1434 1432 1430 1427
1476 1480 1481 1482 1481 1470 1455 1456 1459 1455 1450 1450 1451 1452 1454 1455 1456 1458 1459 1460 1460 1461 1461 1461 1460 1460 1459 1458 1456 1455 1453 1452 1450 1447 1445 1443 1441 1439 1436 1435 1432 1430 1428 1426
1471 1470 1470 1469 1463 1453 1451 1450 1450 1450 1449 1449 1450 1451 1452 1453 1455 1456 1457 1458 1458 1459 1459 1459 1458 1458 1458 1457 1455 1454 1452 1450 1448 1446 1444 1442 1439 1437 1435 1433 1431 1429 1427 1425
1464 1462 1464 1462 1453 1450 1448 1448 1448 1448 1448 1448 1449 1450 1451 1452 1453 1454 1455 1456 1456 1456 1456 1456 1456 1456 1455 1454 1454 1452 1451 1449 1447 1444 1442 1440 1438 1436 1434 1432 1430 1428 1425 1423
1458 1459 1460 1457 1450 1446 1444 1444 1445 1446 1447 1447 1448 1449 1450 1450 1451 1452 1453 1453 1454 1454 1454 1454 1454 1453 1453 1452 1451 1450 1448 1447 1445 1443 1441 1439 1437 1435 1433 1431 1429 1427 1424 1422
1451 1452 1453 1449 1442 1443 1440 1440 1442 1443 1443 1444 1445 1446 1447 1448 1449 1450 1450 1451 1451 1452 1452 1451 1451 1451 1451 1450 1449 1448 1446 1445 1443 1441 1439 1437 1435 1434 1432 1429 1427 1425 1423 1421